www.srh.weather.gov   
NOAA logo - Click to go to the NOAA homepage   NWS logo
Hourly Weather Roundup
Enter Your "City, ST" or zip code   
Current Version              Previous Version:    01  02  03  04  05  06  07  08  09  10  11  12  13  14  15  16  17  18  19  20  21  22  23  24  25  26  27  28  29  30  
   31  32  33  34  35  36  37  38  39  40  41  42  43  44  45  46  47  48  49  50  51  52  53  54  55  56  57  58  59  60  
[Printable]
814
NZUS43 KILX 251810
HWRILX

AREA WEATHER ROUNDUP
NATIONAL WEATHER SERVICE, LINCOLN IL
100 PM CDT FRI JUL 25 2014


CITY           SKY/WX    TMP DP  RH WIND       PRES   REMARKS
BLOOMINGTON    LGT RAIN  61  59  93 S10       30.01F FOG
CHAMPAIGN      LGT RAIN  67  61  81 SW8       30.09R
6HR MIN TEMP:  57; 6HR MAX TEMP:  68; 6HR PCP:  0.01;

DECATUR        LGT RAIN  65  62  90 S3        30.09R
6HR MIN TEMP:  59; 6HR MAX TEMP:  66; 6HR PCP:  0.06;

FLORA          CLOUDY    74  59  60 SW6       30.07S
6HR MIN TEMP:  57; 6HR MAX TEMP:  74;

GALESBURG      CLOUDY    64  62  94 S14G20    29.94F
JACKSONVILLE   RAIN      64  63  95 NW5       30.12R
6HR MIN TEMP:  62; 6HR MAX TEMP:  65; 6HR PCP:  0.36;

LACON          CLOUDY    63  60  90 S13       29.92F
LAWRENCEVILLE  CLOUDY    75  57  53 S5        30.08R
6HR MIN TEMP:  60; 6HR MAX TEMP:  75;

LITCHFIELD     LGT RAIN  67  64  90 E3        30.06R
$$


CITY           SKY/WX    TMP DP  RH WIND       PRES   REMARKS
LINCOLN        HVY RAIN  64  61  93 S8        30.05R
6HR MIN TEMP:  59; 6HR MAX TEMP:  64; 6HR PCP:  0.31;

MACOMB         LGT RAIN  61  61 100 S15G24    29.98F
MATTOON        LGT RAIN  67  60  78 VRB3      30.09R
6HR MIN TEMP:  60; 6HR MAX TEMP:  68; 6HR PCP: TRACE;

MT CARMEL AP   CLOUDY    79  57  47 SE5       30.07R HX  80
OLNEY-NOBLE AP CLOUDY    72  61  68 CALM      30.08R
PARIS          CLOUDY    70  60  70 S6        30.09R
6HR MIN TEMP:  56; 6HR MAX TEMP:  71;

PEORIA         CLOUDY    65  60  84 S8        29.98F
6HR MIN TEMP:  63; 6HR MAX TEMP:  65; 6HR PCP:  0.30;

PONTIAC        LGT RAIN  68  63  83 SW8       30.01F
RANTOUL        LGT RAIN  69  60  72 SW8       30.08R
6HR MIN TEMP:  58; 6HR MAX TEMP:  70;

ROBINSON       CLOUDY    74  60  60 SW5       30.09R
6HR MIN TEMP:  58; 6HR MAX TEMP:  76;

SPRINGFIELD    HVY RAIN  64  62  93 CALM      30.11R FOG
6HR MIN TEMP:  61; 6HR MAX TEMP:  65; 6HR PCP:  0.28;

TAYLORVILLE    LGT RAIN  64  63  94 CALM      30.08R
$$

...REGIONAL REPORTS...


CITY           SKY/WX    TMP DP  RH WIND       PRES   REMARKS
CHICAGO O`HARE CLOUDY    73  55  53 SW16      29.97F
KANKAKEE       CLOUDY    69  59  71 SW10G17   30.03R
MOLINE         TSTM      64  61  88 S13G29    29.86F
MOUNT VERNON   CLOUDY    77  61  57 SW8       30.07S
PITTSFIELD     TSTM      63  60  91 N10G22    30.12R
QUINCY         TSTM      62  60  93 S9        30.02F FOG
ROCKFORD       CLOUDY    69  58  67 W12G26    29.95F
$$


CITY           SKY/WX    TMP DP  RH WIND       PRES   REMARKS
BURLINGTON     CLOUDY    65  62  90 S24       29.91F
CEDAR RAPIDS   PTSUNNY   70  63  78 S16G28    29.87S
DES MOINES     CLOUDY    74  63  68 S22G30    29.84F
KIRKSVILLE     CLOUDY    65  62  90 E16       29.97F
OTTUMWA        CLOUDY    69  63  81 S18G25    29.86F
ST LOUIS       CLOUDY    74  58  57 SE5       30.04F
$$


CITY           SKY/WX    TMP DP  RH WIND       PRES   REMARKS
TERRE HAUTE    CLOUDY    72  56  57 SW6       30.08R
EVANSVILLE     PTSUNNY   79  53  40 VRB5      30.07R
INDIANAPOLIS   CLOUDY    74  55  51 S7        30.06F
LAFAYETTE      CLOUDY    73  56  54 S7        30.04F
MADISON        CLOUDY    68  57  68 S8        29.93S
MILWAUKEE      CLOUDY    71  56  58 SW15      29.94F
$$





National Weather Service
Disclaimer
Last Modified: August 31, 2005
Privacy Policy